Tracking 27122 objects as of 26-Mar-2023
HD Live streaming from Space Station
objects crossing your sky now

DELTA 2 R/B(2)

Track DELTA 2 R/B(2) now!


NORAD ID: 25548
Int'l Code: 1998-068C
Perigee: 1,344.2 km
Apogee: 36,603.4 km
Inclination: 19.4 °
Period: 669.3 minutes
Semi major axis: 25344 km
RCS: 3.2304 m2 (large)
Launch date: November 22, 1998
Source: United States (US)
Launch site: AIR FORCE EASTERN TEST RANGE (AFETR)

Note: This is a ROCKET BODY
Your satellite tracking list
Your tracking list is empty




NASA's NSSDC Master Catalog

Two Line Element Set (TLE):
1 25548U 98068C   23083.21415057 -.00000131  00000-0  00000-0 0  9992
2 25548  19.3533 179.8962 6955912 337.0035   3.1283  2.15164452191356
Source of the keplerian elements: AFSPC